Content
SEND FEEDBACK

Daily
Averages
Monthly
Summary
United Kingdom

CRANBROOK, ENGLAND


Home > Europe > United Kingdom > England
Elevation: 305 feet     Latitude: 51 16N     Longitude: 000 24E

WEATHER
 
SELECT A DAY
Number of Records: 142,125;   Date Range: 7/1/96 - 10/21/14
 
SHARE

PRINT THIS DATA

[ ← Previous Day ]
WEATHER ALMANAC - OCTOBER 22, 2013
[ Next Day → ]
[ °C ]   °F
Weather ElementAverageHighLow
Temperature60.1 °F62.6 °F (2:50 pm)59 °F (6:50 am)
Dewpoint57.1 °F59 °F (11:20 am)55.4 °F (6:50 am)
Humidity89.9 %94 % (9:50 am)82 % (4:50 pm)
Barometer29.44 in29.50 in (6:50 am)29.39 in (6:50 pm)
Wind Speed12.7 mph16.1 mph (4:20 pm)
Weather ElementAverage
Visibility5.5 mi
Wind DirectionS (184.3 °)

Weather ElementTotal
Precipitation---
Heating Degree Days4.2 (Base 65)
Growing Degree Days10.8 (Base 50)
Averaged from 28 records on October 22, 2013
WEATHER CONDITIONS BREAKOUT
WIND DIRECTION BREAKOUT
WEATHER BY HOUR - OCTOBER 22, 2013
[ °C ]   °F
Local TimeTemperatureDewpointHumidityBarometerVisibilityWind DirectionWind SpeedGust SpeedPrecipitationEventsConditions
6:50 AM59.0 °F55.4 °F88 %29.50 in6.2 miSouth (170°)11.5 mphMostly Cloudy
7:20 AM59.0 °F55.4 °F88 %29.50 in6.2 miSouth (170°)11.5 mphMostly Cloudy
7:50 AM59.0 °F55.4 °F88 %29.50 in6.2 miSouth (170°)12.7 mphMostly Cloudy
8:20 AM59.0 °F55.4 °F88 %29.50 in5.6 miSouth (180°)12.7 mphRainLight Rain
8:50 AM59.0 °F55.4 °F88 %29.50 in5.6 miSouth (180°)11.5 mphRainRain
9:50 AM59.0 °F57.2 °F94 %29.47 in5.6 miSouth (180°)11.5 mphRainRain
10:20 AM59.0 °F57.2 °F94 %29.47 in4.3 miSouth (170°)11.5 mphRainLight Rain
10:50 AM59.0 °F57.2 °F94 %29.47 in3.7 miSouth (180°)10.4 mphRainLight Rain
11:20 AM60.8 °F59.0 °F94 %29.47 in2.2 miSouth (190°)9.2 mphRainRain
11:50 AM59.0 °F57.2 °F94 %29.47 in2.2 miSouth (190°)11.5 mphRainRain
12:20 PM60.8 °F59.0 °F94 %29.44 in4.3 miSSW (200°)13.8 mphRainLight Rain
12:50 PM60.8 °F59.0 °F94 %29.44 in3.1 miSSW (200°)11.5 mphRainRain
1:20 PM59.0 °F57.2 °F94 %29.44 in6.2 miSouth (190°)13.8 mphMostly Cloudy
1:50 PM60.8 °F59.0 °F94 %29.44 in5.6 miSSW (200°)13.8 mphMostly Cloudy
2:20 PM60.8 °F59.0 °F94 %29.44 in5.6 miSouth (190°)13.8 mphMostly Cloudy
2:50 PM62.6 °F59.0 °F88 %29.42 in6.2 miSouth (180°)12.7 mphMostly Cloudy
3:20 PM60.8 °F59.0 °F94 %29.42 in6.2 miSouth (190°)13.8 mphMostly Cloudy
3:50 PM62.6 °F59.0 °F88 %29.42 in6.2 miSouth (190°)12.7 mphScattered Clouds
4:20 PM62.6 °F59.0 °F88 %29.42 in6.2 miSSW (200°)16.1 mphScattered Clouds
4:50 PM62.6 °F57.2 °F82 %29.42 in6.2 miSSW (200°)12.7 mphPartly Cloudy
5:20 PM60.8 °F57.2 °F88 %29.42 in6.2 miSouth (190°)11.5 mphPartly Cloudy
5:50 PM60.8 °F57.2 °F88 %29.42 in6.2 miSouth (180°)11.5 mphScattered Clouds
6:20 PM60.8 °F55.4 °F82 %29.42 in6.2 miSouth (180°)13.8 mphRainRain
6:50 PM59.0 °F55.4 °F88 %29.39 in6.2 miSouth (170°)15.0 mphMostly Cloudy
7:20 PM59.0 °F55.4 °F88 %29.39 in6.2 miSouth (180°)12.7 mphScattered Clouds
7:50 PM59.0 °F55.4 °F88 %29.39 in6.2 miSouth (180°)13.8 mphPartly Cloudy
8:20 PM59.0 °F55.4 °F88 %29.39 in6.2 miSouth (180°)15.0 mphPartly Cloudy
8:50 PM59.0 °F55.4 °F88 %29.39 in6.2 miSouth (180°)13.8 mphPartly Cloudy
Hourly data recorded from EGKB, located miles away from Cranbrook, England







STORIES FROM OUR PARTNERS